[[{"header":{"parameterUnit":"m.s-1","parameterCategory":2,"la1":30.2992,"la2":30.254,"lo1":-89.0895,"lo2":-89.0443,"dy":0.0025,"dx":0.0025,"nx":19,"ny":19,"refTime":"2026-05-02T03:00:00:Z","depth":"0","parameterNumber":2,"parameterNumberName":"U-component_of_CURRENTS"},"data":[0,0,0,-0.1043,-0.1043,-0.1045,-0.1045,-0.1068,-0.1069,0,0,0,0,0,0,0,0,0,0,0,-0.1038,-0.1038,-0.1043,-0.1043,-0.1045,-0.1045,-0.1068,-0.1069,0,0,0,0,0,0,0,0,0,0,0,-0.1038,-0.1038,-0.1038,-0.1043,-0.1045,-0.1045,-0.1068,-0.1061,0,0,0,0,0,0,0,0,0,0,-0.1056,-0.1047,-0.1038,-0.1038,-0.1043,-0.1045,-0.1045,-0.106,-0.1061,-0.1074,0,-0.1073,0,-0.1075,-0.1071,-0.1071,0,0,0,-0.104,-0.1046,-0.1051,-0.1038,-0.1043,-0.1045,-0.1043,-0.1061,-0.1062,-0.1076,-0.1073,-0.1074,-0.1076,-0.1071,-0.1071,-0.1124,-0.1125,0,0,-0.104,-0.1036,-0.105,-0.1051,-0.1042,-0.1043,-0.1044,-0.1061,-0.106,-0.1073,-0.1075,-0.1076,-0.1071,-0.1072,-0.1124,-0.1124,0,0,0,-0.1042,-0.1036,-0.1039,-0.105,-0.1051,-0.1044,-0.1044,-0.1059,-0.1061,-0.1075,-0.1076,-0.1072,-0.1072,-0.1124,-0.1124,-0.1132,0,0,0,-0.1042,-0.1037,-0.1039,-0.1036,-0.1051,-0.1052,-0.1041,-0.106,-0.1062,-0.1076,-0.1072,-0.1072,-0.1123,-0.1124,-0.1131,-0.1101,0,0,0,-0.1038,-0.1037,-0.1037,-0.1036,-0.1039,-0.1052,-0.1055,-0.106,-0.1063,-0.1071,-0.1073,-0.1123,-0.1124,-0.113,-0.1101,-0.1037,0,0,0,-0.1034,-0.1045,-0.1037,-0.1053,-0.1039,-0.1069,-0.1054,-0.107,-0.1078,-0.1072,-0.1123,-0.1124,-0.113,-0.11,-0.1038,-0.0802,-0.0779,0,0,-0.105,-0.1047,-0.1059,-0.1052,-0.1084,-0.1068,-0.1099,-0.1096,-0.1095,-0.1118,-0.1119,-0.1132,-0.1101,-0.1037,-0.0847,-0.0822,0,0,0,-0.1066,-0.1071,-0.1081,-0.1093,-0.1111,-0.111,-0.1119,-0.1117,-0.1125,-0.1103,-0.1145,-0.1125,-0.1084,-0.0945,-0.0926,-0.0677,-0.1128,-0.1128,-0.1128,-0.107,-0.1086,-0.1104,-0.1122,-0.1136,-0.1147,-0.1141,-0.1139,-0.1155,-0.1158,-0.1143,-0.1113,-0.0969,-0.0951,-0.07,-0.1175,-0.1175,-0.1175,-0.1175,-0.108,-0.1074,-0.1102,-0.1121,-0.1133,-0.1151,-0.1157,-0.1156,-0.1132,-0.1162,-0.1122,-0.0976,-0.0929,-0.0669,-0.1175,-0.1175,-0.1175,-0.1175,-0.1175,-0.1056,-0.1052,-0.1074,-0.1091,-0.1101,-0.1123,-0.1087,-0.1106,-0.1109,-0.1088,-0.0892,-0.0889,-0.0643,-0.1061,-0.106,-0.106,-0.106,-0.1059,-0.1059,-0.1002,-0.1026,-0.1019,-0.1045,-0.1038,-0.1035,-0.103,-0.0991,-0.0883,-0.0849,-0.0847,-0.058,-0.1077,-0.1061,-0.1053,-0.1054,-0.1055,-0.1056,-0.1056,-0.0933,-0.095,-0.0931,-0.0926,-0.0914,-0.0837,-0.0863,-0.068,-0.0641,-0.0527,-0.0237,-0.0705,-0.0658,-0.0671,-0.0645,-0.053,-0.053,-0.053,-0.053,-0.0869,-0.0884,-0.0829,-0.0793,-0.0764,-0.0732,-0.049,-0.0313,-0.0041,0.0159,0.0115,0.0158,0.0125,0.0217,0.0184,0.0226,0.056,0.0561,0.0563,-0.0804,-0.0801,-0.0732,-0.0718,-0.068,-0.0585,-0.0274,0.011,0.0513,0.0621,0.0416,0.037,0.0435,0.0364,0.0502,0.0435,0.05,0,0]},{"header":{"parameterUnit":"m.s-1","parameterCategory":2,"la1":30.2992,"la2":30.254,"lo1":-89.0895,"lo2":-89.0443,"dy":0.0025,"dx":0.0025,"nx":19,"ny":19,"refTime":"2026-05-02T03:00:00:Z","depth":"0","parameterNumber":3,"parameterNumberName":"V-component_of_CURRENTS"},"data":[0,0,0,-0.0528,-0.0527,-0.0497,-0.0496,-0.0419,-0.0418,0,0,0,0,0,0,0,0,0,0,0,-0.0537,-0.0537,-0.0528,-0.0527,-0.0497,-0.0496,-0.0419,-0.0418,0,0,0,0,0,0,0,0,0,0,0,-0.0537,-0.0537,-0.0537,-0.0527,-0.0497,-0.0496,-0.0419,-0.045,0,0,0,0,0,0,0,0,0,0,-0.0484,-0.0501,-0.0537,-0.0537,-0.0527,-0.0497,-0.0496,-0.0451,-0.0448,-0.0424,0,-0.0425,0,-0.0422,-0.0413,-0.0412,0,0,0,-0.0519,-0.0504,-0.0497,-0.0537,-0.0527,-0.0497,-0.0508,-0.045,-0.0445,-0.0419,-0.0424,-0.0421,-0.0421,-0.0412,-0.0412,-0.0393,-0.0393,0,0,-0.0521,-0.0527,-0.0501,-0.0495,-0.0525,-0.0509,-0.0507,-0.0447,-0.0444,-0.0423,-0.0419,-0.042,-0.0412,-0.0411,-0.0392,-0.0393,0,0,0,-0.0531,-0.0528,-0.0523,-0.0498,-0.0497,-0.0509,-0.0506,-0.0446,-0.0445,-0.0419,-0.0419,-0.0411,-0.041,-0.0392,-0.0392,-0.0484,0,0,0,-0.0532,-0.0535,-0.0524,-0.0527,-0.0499,-0.0477,-0.0507,-0.0449,-0.0443,-0.0419,-0.0411,-0.0409,-0.0391,-0.0392,-0.0481,-0.0502,0,0,0,-0.0538,-0.0536,-0.0534,-0.0528,-0.0518,-0.0478,-0.0473,-0.0448,-0.0443,-0.0412,-0.0409,-0.0391,-0.0392,-0.0478,-0.0498,-0.0438,0,0,0,-0.0541,-0.0556,-0.0535,-0.055,-0.0519,-0.0523,-0.0474,-0.046,-0.0439,-0.0411,-0.0391,-0.0392,-0.0477,-0.0495,-0.0436,-0.0252,-0.0244,0,0,-0.0566,-0.0559,-0.0569,-0.055,-0.0572,-0.0526,-0.0549,-0.0494,-0.0444,-0.0405,-0.0405,-0.0482,-0.0497,-0.0437,-0.0306,-0.0295,0,0,0,-0.0581,-0.0591,-0.0593,-0.0599,-0.0588,-0.0589,-0.0544,-0.0529,-0.0502,-0.0437,-0.0475,-0.0481,-0.044,-0.0326,-0.0319,-0.0206,-0.0397,-0.0396,-0.0396,-0.062,-0.0621,-0.0649,-0.0653,-0.0651,-0.0631,-0.0628,-0.0597,-0.055,-0.0557,-0.0552,-0.0563,-0.0447,-0.0438,-0.0328,-0.0556,-0.0556,-0.0556,-0.0556,-0.0672,-0.0691,-0.0695,-0.0724,-0.072,-0.073,-0.0709,-0.0686,-0.065,-0.0632,-0.0587,-0.0425,-0.0434,-0.0319,-0.0562,-0.0561,-0.056,-0.056,-0.0559,-0.0704,-0.0715,-0.0735,-0.077,-0.0789,-0.0779,-0.075,-0.0744,-0.0705,-0.0695,-0.047,-0.0465,-0.0358,-0.064,-0.0639,-0.0639,-0.0639,-0.0639,-0.0639,-0.0724,-0.0745,-0.0774,-0.0806,-0.0814,-0.0804,-0.0761,-0.0699,-0.0575,-0.0527,-0.0524,-0.0336,-0.0586,-0.0576,-0.0637,-0.0637,-0.0638,-0.0638,-0.0638,-0.0751,-0.0758,-0.0794,-0.0809,-0.0807,-0.0718,-0.0683,-0.0461,-0.0398,-0.0288,-0.0162,-0.0404,-0.0331,-0.0334,-0.0316,-0.0305,-0.0305,-0.0305,-0.0305,-0.0758,-0.0769,-0.0794,-0.0797,-0.0772,-0.0677,-0.0385,-0.0154,0.002,0.0105,0.0031,0.0074,0.0055,0.0152,0.0138,0.0166,0.0298,0.0299,0.0299,-0.0766,-0.0774,-0.0779,-0.0787,-0.0752,-0.0578,-0.0213,0.0226,0.0406,0.0326,0.0144,0.0119,0.0175,0.0138,0.0284,0.0255,0.0299,0,0]}],[{"header":{"parameterUnit":"m.s-1","parameterCategory":2,"la1":30.2992,"la2":30.254,"lo1":-89.0895,"lo2":-89.0443,"dy":0.0025,"dx":0.0025,"nx":19,"ny":19,"refTime":"2026-05-02T03:00:00:Z","depth":"2","parameterNumber":2,"parameterNumberName":"U-component_of_CURRENTS"},"data":[0,0,0,-0.0987,-0.0987,-0.0998,-0.0999,-0.1021,-0.1021,0,0,0,0,0,0,0,0,0,0,0,-0.0981,-0.0981,-0.0987,-0.0987,-0.0998,-0.0999,-0.1021,-0.1021,0,0,0,0,0,0,0,0,0,0,0,-0.0981,-0.0981,-0.0981,-0.0987,-0.0998,-0.0999,-0.1021,-0.1011,0,0,0,0,0,0,0,0,0,0,-0.0998,-0.099,-0.0981,-0.0981,-0.0987,-0.0998,-0.0999,-0.101,-0.1011,-0.1018,0,-0.1018,0,-0.1021,-0.1023,-0.1023,0,0,0,-0.0987,-0.0989,-0.0994,-0.0981,-0.0987,-0.0998,-0.0993,-0.1011,-0.1012,-0.102,-0.1018,-0.1019,-0.1022,-0.1023,-0.1023,-0.1048,-0.1048,0,0,-0.0987,-0.0982,-0.0993,-0.0995,-0.0988,-0.0993,-0.0994,-0.1011,-0.1011,-0.1018,-0.102,-0.1022,-0.1023,-0.1024,-0.1048,-0.1048,0,0,0,-0.0985,-0.0981,-0.0986,-0.0994,-0.0996,-0.0993,-0.0994,-0.101,-0.1012,-0.102,-0.1022,-0.1024,-0.1024,-0.1048,-0.1048,-0.1051,0,0,0,-0.0984,-0.098,-0.0985,-0.0982,-0.0995,-0.1002,-0.0992,-0.1011,-0.1013,-0.1022,-0.1024,-0.1024,-0.1048,-0.1048,-0.1051,-0.1041,0,0,0,-0.098,-0.098,-0.0981,-0.0982,-0.0987,-0.1001,-0.1004,-0.1011,-0.1014,-0.1023,-0.1024,-0.1048,-0.1048,-0.105,-0.1041,-0.0993,0,0,0,-0.0976,-0.0984,-0.098,-0.0993,-0.0987,-0.1011,-0.1004,-0.1022,-0.1031,-0.1024,-0.1048,-0.1048,-0.105,-0.1041,-0.0994,-0.0818,-0.08,0,0,-0.0986,-0.0985,-0.0995,-0.0992,-0.1013,-0.1009,-0.1028,-0.1035,-0.1035,-0.1042,-0.1043,-0.1051,-0.1041,-0.0993,-0.083,-0.0811,0,0,0,-0.0999,-0.0999,-0.1008,-0.1016,-0.1032,-0.1034,-0.1044,-0.1044,-0.1048,-0.1041,-0.1054,-0.1048,-0.1017,-0.0913,-0.0899,-0.1049,-0.1049,-0.1049,-0.1049,-0.0993,-0.1006,-0.1015,-0.1027,-0.1042,-0.1054,-0.1053,-0.1052,-0.1062,-0.1061,-0.1053,-0.1023,-0.0913,-0.09,-0.1062,-0.1062,-0.1062,-0.1062,-0.1062,-0.0991,-0.0986,-0.1006,-0.1019,-0.103,-0.1043,-0.1054,-0.1056,-0.1038,-0.1059,-0.1028,-0.0926,-0.0884,-0.1062,-0.1062,-0.1062,-0.1062,-0.1062,-0.1062,-0.0966,-0.0963,-0.0977,-0.0988,-0.1001,-0.1023,-0.1002,-0.1024,-0.1025,-0.1011,-0.0863,-0.0861,-0.0999,-0.0986,-0.0986,-0.0986,-0.0986,-0.0985,-0.0985,-0.0922,-0.0937,-0.0929,-0.095,-0.095,-0.0956,-0.0967,-0.0938,-0.0864,-0.0838,-0.0836,-0.0996,-0.0998,-0.0994,-0.0982,-0.0982,-0.0983,-0.0983,-0.0983,-0.0862,-0.0876,-0.0858,-0.0855,-0.0852,-0.0788,-0.0829,-0.0698,-0.0678,-0.0594,-0.0721,-0.0728,-0.0698,-0.0708,-0.0695,-0.0606,-0.0606,-0.0606,-0.0606,-0.0811,-0.0821,-0.0775,-0.0748,-0.0723,-0.0701,-0.0507,-0.0396,-0.0389,-0.0377,-0.0388,-0.0377,-0.0396,-0.035,-0.0368,-0.035,-0.0172,-0.0171,-0.0171,-0.0754,-0.0753,-0.0693,-0.068,-0.0648,-0.0564,-0.0307,-0.0044,-0.0005,-0.0161,-0.0387,-0.0563,-0.0575,-0.0594,-0.0549,-0.0569,-0.0549,0,0]},{"header":{"parameterUnit":"m.s-1","parameterCategory":2,"la1":30.2992,"la2":30.254,"lo1":-89.0895,"lo2":-89.0443,"dy":0.0025,"dx":0.0025,"nx":19,"ny":19,"refTime":"2026-05-02T03:00:00:Z","depth":"2","parameterNumber":3,"parameterNumberName":"V-component_of_CURRENTS"},"data":[0,0,0,-0.033,-0.033,-0.0319,-0.0318,-0.0281,-0.0281,0,0,0,0,0,0,0,0,0,0,0,-0.0333,-0.0333,-0.033,-0.033,-0.0319,-0.0318,-0.0281,-0.0281,0,0,0,0,0,0,0,0,0,0,0,-0.0333,-0.0333,-0.0333,-0.033,-0.0319,-0.0318,-0.0281,-0.0294,0,0,0,0,0,0,0,0,0,0,-0.0307,-0.0315,-0.0333,-0.0333,-0.033,-0.0319,-0.0318,-0.0295,-0.0293,-0.0282,0,-0.0285,0,-0.0286,-0.0279,-0.0278,0,0,0,-0.0323,-0.0317,-0.0315,-0.0333,-0.033,-0.0319,-0.0322,-0.0294,-0.0292,-0.028,-0.0285,-0.0284,-0.0285,-0.0278,-0.0278,-0.0258,-0.0258,0,0,-0.0323,-0.0327,-0.0317,-0.0315,-0.0333,-0.0322,-0.0321,-0.0293,-0.0292,-0.0285,-0.0283,-0.0284,-0.0278,-0.0278,-0.0258,-0.0258,0,0,0,-0.033,-0.0327,-0.0327,-0.0316,-0.0317,-0.0322,-0.0321,-0.0293,-0.0294,-0.0283,-0.0284,-0.0278,-0.0278,-0.0258,-0.0258,-0.0288,0,0,0,-0.033,-0.0332,-0.0327,-0.0329,-0.0318,-0.0308,-0.0322,-0.0296,-0.0293,-0.0284,-0.0278,-0.0277,-0.0258,-0.0258,-0.0287,-0.0305,0,0,0,-0.0332,-0.0332,-0.0333,-0.0329,-0.0328,-0.0309,-0.0308,-0.0295,-0.0294,-0.0278,-0.0277,-0.0258,-0.0258,-0.0286,-0.0303,-0.0277,0,0,0,-0.0332,-0.0347,-0.0333,-0.0349,-0.0328,-0.0333,-0.0308,-0.0307,-0.0298,-0.0278,-0.0258,-0.0258,-0.0286,-0.0302,-0.0276,-0.0223,-0.022,0,0,-0.0353,-0.0349,-0.036,-0.0348,-0.0364,-0.0334,-0.0337,-0.0314,-0.0293,-0.0264,-0.0263,-0.0287,-0.0303,-0.0276,-0.0228,-0.0225,0,0,0,-0.0369,-0.0377,-0.0379,-0.0384,-0.0379,-0.0364,-0.034,-0.0322,-0.0298,-0.0289,-0.0281,-0.0289,-0.0271,-0.0238,-0.0236,-0.0258,-0.0258,-0.0258,-0.0258,-0.0395,-0.0397,-0.0415,-0.0413,-0.0409,-0.0383,-0.0366,-0.0333,-0.0315,-0.0307,-0.0309,-0.0304,-0.027,-0.0268,-0.03,-0.03,-0.03,-0.03,-0.0301,-0.0432,-0.0446,-0.0438,-0.0458,-0.0438,-0.0433,-0.0386,-0.0367,-0.033,-0.0325,-0.0305,-0.0267,-0.0267,-0.0303,-0.0302,-0.0302,-0.0302,-0.0302,-0.0302,-0.0455,-0.0462,-0.0473,-0.0492,-0.0488,-0.0462,-0.0434,-0.0404,-0.0359,-0.0349,-0.028,-0.0278,-0.0313,-0.033,-0.033,-0.033,-0.033,-0.033,-0.033,-0.0476,-0.0486,-0.0511,-0.0524,-0.0531,-0.0518,-0.0465,-0.0422,-0.0345,-0.0306,-0.0305,-0.0314,-0.0313,-0.0313,-0.033,-0.033,-0.033,-0.033,-0.033,-0.0509,-0.0515,-0.0549,-0.0565,-0.0569,-0.0525,-0.0484,-0.0361,-0.0312,-0.0256,-0.0262,-0.0263,-0.0241,-0.0241,-0.024,-0.0236,-0.0236,-0.0236,-0.0236,-0.0529,-0.0535,-0.0573,-0.059,-0.0586,-0.0527,-0.0393,-0.0289,-0.0225,-0.0207,-0.0209,-0.0203,-0.0206,-0.0182,-0.0184,-0.0181,-0.0162,-0.0162,-0.0162,-0.0547,-0.0557,-0.0579,-0.0595,-0.059,-0.0499,-0.033,-0.015,-0.0097,-0.0163,-0.0235,-0.0223,-0.0217,-0.0222,-0.0186,-0.0189,-0.0185,0,0]}],[{"header":{"parameterUnit":"m.s-1","parameterCategory":2,"la1":30.2992,"la2":30.254,"lo1":-89.0895,"lo2":-89.0443,"dy":0.0025,"dx":0.0025,"nx":19,"ny":19,"refTime":"2026-05-02T03:00:00:Z","depth":"4","parameterNumber":2,"parameterNumberName":"U-component_of_CURRENTS"},"data":[0,0,0,-0.0754,-0.0755,-0.0807,-0.0808,-0.0853,-0.0854,0,0,0,0,0,0,0,0,0,0,0,-0.0738,-0.0738,-0.0754,-0.0755,-0.0807,-0.0808,-0.0853,-0.0854,0,0,0,0,0,0,0,0,0,0,0,-0.0738,-0.0738,-0.0738,-0.0755,-0.0807,-0.0808,-0.0853,-0.082,0,0,0,0,0,0,0,0,0,0,-0.0772,-0.0761,-0.0738,-0.0738,-0.0755,-0.0807,-0.0808,-0.0818,-0.0822,-0.0822,0,-0.0832,0,-0.0841,-0.0856,-0.0856,0,0,0,-0.0758,-0.0758,-0.0769,-0.0738,-0.0756,-0.0807,-0.0785,-0.082,-0.0824,-0.0827,-0.0833,-0.0834,-0.0842,-0.0856,-0.0856,-0.0877,-0.0877,0,0,-0.0755,-0.075,-0.0767,-0.0772,-0.0771,-0.0783,-0.0786,-0.0823,-0.0829,-0.0833,-0.0836,-0.0843,-0.0856,-0.0856,-0.0877,-0.0877,0,0,0,-0.0745,-0.0748,-0.0759,-0.077,-0.0779,-0.0784,-0.0788,-0.0827,-0.083,-0.0836,-0.0843,-0.0856,-0.0857,-0.0877,-0.0877,-0.088,0,0,0,-0.0743,-0.0741,-0.0758,-0.0755,-0.0779,-0.0807,-0.0791,-0.0828,-0.0832,-0.0843,-0.0856,-0.0857,-0.0877,-0.0877,-0.088,-0.0877,0,0,0,-0.0735,-0.0741,-0.0746,-0.0755,-0.0775,-0.0807,-0.0813,-0.0829,-0.0836,-0.0856,-0.0857,-0.0877,-0.0877,-0.088,-0.0877,-0.0844,0,0,0,-0.0728,-0.0739,-0.0747,-0.0764,-0.0775,-0.0806,-0.0813,-0.0843,-0.0862,-0.0857,-0.0877,-0.0877,-0.088,-0.0877,-0.0845,-0.071,0,0,0,-0.0736,-0.074,-0.075,-0.0758,-0.0782,-0.0799,-0.0824,-0.0853,-0.0858,-0.0864,-0.0865,-0.088,-0.0877,-0.0844,-0.0709,0,0,0,0,-0.0749,-0.0752,-0.0763,-0.0779,-0.0803,-0.0821,-0.0849,-0.0855,-0.087,-0.0868,-0.0878,-0.0876,-0.0855,-0.0779,-0.0877,-0.0877,-0.0877,-0.0877,-0.0877,-0.0741,-0.0755,-0.0769,-0.0787,-0.0809,-0.084,-0.0852,-0.0863,-0.0874,-0.0877,-0.0877,-0.0853,-0.0773,-0.0878,-0.0878,-0.0878,-0.0878,-0.0878,-0.0878,-0.0736,-0.0735,-0.0763,-0.0782,-0.0807,-0.083,-0.0854,-0.0864,-0.0859,-0.0876,-0.0855,-0.0786,-0.0878,-0.0878,-0.0878,-0.0878,-0.0878,-0.0878,-0.0878,-0.071,-0.0711,-0.0734,-0.0759,-0.0789,-0.0823,-0.082,-0.085,-0.0854,-0.0847,-0.0741,-0.0842,-0.0841,-0.0829,-0.0829,-0.0829,-0.0829,-0.0829,-0.0829,-0.0667,-0.0689,-0.0697,-0.0734,-0.075,-0.0774,-0.0802,-0.0781,-0.0794,-0.0721,-0.0839,-0.0836,-0.0837,-0.0837,-0.0826,-0.0827,-0.0827,-0.0827,-0.0827,-0.0613,-0.0634,-0.0636,-0.0651,-0.0677,-0.0682,-0.0735,-0.0657,-0.0616,-0.0555,-0.0641,-0.0651,-0.063,-0.0636,-0.0629,-0.0555,-0.0554,-0.0552,0,-0.057,-0.0583,-0.0571,-0.0568,-0.0558,-0.0612,-0.0521,-0.0507,-0.0502,-0.0485,-0.0619,-0.072,-0.0725,-0.0708,-0.071,-0.0703,0,0,0,-0.0525,-0.0531,-0.0499,-0.0508,-0.0491,-0.0455,-0.0486,-0.0433,-0.0528,-0.0424,-0.0506,-0.0518,-0.0703,-0.0819,-0.0811,-0.0812,-0.0812,0,0]},{"header":{"parameterUnit":"m.s-1","parameterCategory":2,"la1":30.2992,"la2":30.254,"lo1":-89.0895,"lo2":-89.0443,"dy":0.0025,"dx":0.0025,"nx":19,"ny":19,"refTime":"2026-05-02T03:00:00:Z","depth":"4","parameterNumber":3,"parameterNumberName":"V-component_of_CURRENTS"},"data":[0,0,0,-0.0208,-0.0208,-0.0218,-0.0218,-0.0212,-0.0212,0,0,0,0,0,0,0,0,0,0,0,-0.0204,-0.0204,-0.0208,-0.0208,-0.0218,-0.0218,-0.0212,-0.0212,0,0,0,0,0,0,0,0,0,0,0,-0.0204,-0.0204,-0.0204,-0.0208,-0.0218,-0.0218,-0.0212,-0.0208,0,0,0,0,0,0,0,0,0,0,-0.0201,-0.0202,-0.0204,-0.0204,-0.0208,-0.0218,-0.0218,-0.0208,-0.0208,-0.0204,0,-0.0209,0,-0.0212,-0.0211,-0.0211,0,0,0,-0.0203,-0.0202,-0.0205,-0.0204,-0.0209,-0.0218,-0.0212,-0.0208,-0.0208,-0.0204,-0.0209,-0.0209,-0.0212,-0.0211,-0.0211,-0.0194,-0.0194,0,0,-0.0203,-0.0204,-0.0205,-0.0205,-0.0216,-0.0212,-0.0212,-0.0208,-0.021,-0.0209,-0.0209,-0.0212,-0.0211,-0.0211,-0.0194,-0.0194,0,0,0,-0.0205,-0.0204,-0.0207,-0.0205,-0.021,-0.0212,-0.0213,-0.021,-0.0212,-0.0209,-0.0212,-0.0211,-0.0211,-0.0194,-0.0194,-0.0203,0,0,0,-0.0204,-0.0205,-0.0207,-0.0207,-0.021,-0.0213,-0.0215,-0.0212,-0.0212,-0.0212,-0.0211,-0.0211,-0.0195,-0.0194,-0.0203,-0.0213,0,0,0,-0.0203,-0.0205,-0.0207,-0.0207,-0.0213,-0.0213,-0.0214,-0.0212,-0.0214,-0.0211,-0.0211,-0.0195,-0.0194,-0.0203,-0.0213,-0.0206,0,0,0,-0.0201,-0.0213,-0.0208,-0.0223,-0.0213,-0.0223,-0.0214,-0.0223,-0.0224,-0.0211,-0.0195,-0.0194,-0.0203,-0.0213,-0.0206,-0.0217,0,0,0,-0.0216,-0.0215,-0.0224,-0.022,-0.0235,-0.0221,-0.0224,-0.0223,-0.0213,-0.0194,-0.0194,-0.0203,-0.0213,-0.0206,-0.0196,0,0,0,0,-0.0228,-0.0235,-0.0239,-0.0247,-0.0248,-0.0239,-0.0234,-0.022,-0.0203,-0.0212,-0.0193,-0.0199,-0.0195,-0.0201,-0.0193,-0.0193,-0.0193,-0.0193,-0.0193,-0.0245,-0.0248,-0.0263,-0.0264,-0.0265,-0.0251,-0.0236,-0.0212,-0.0208,-0.0195,-0.0199,-0.0191,-0.0197,-0.0187,-0.0187,-0.0187,-0.0187,-0.0187,-0.0187,-0.0269,-0.028,-0.0278,-0.0296,-0.0282,-0.028,-0.0237,-0.0223,-0.0192,-0.019,-0.0184,-0.0201,-0.0188,-0.0188,-0.0188,-0.0188,-0.0188,-0.0187,-0.0187,-0.0283,-0.0289,-0.0302,-0.0322,-0.0321,-0.0302,-0.0284,-0.025,-0.0208,-0.0199,-0.0202,-0.0194,-0.0201,-0.0199,-0.0199,-0.0199,-0.0199,-0.0199,-0.0199,-0.0295,-0.0305,-0.0334,-0.0349,-0.0363,-0.0359,-0.0317,-0.0291,-0.0247,-0.0215,-0.0208,-0.0195,-0.0194,-0.0201,-0.0199,-0.0199,-0.0199,-0.0199,-0.0199,-0.0316,-0.0327,-0.0364,-0.0387,-0.041,-0.0399,-0.0369,-0.0305,-0.0273,-0.0239,-0.0214,-0.0213,-0.021,-0.021,-0.0217,-0.022,-0.022,-0.022,0,-0.0331,-0.0338,-0.0389,-0.0421,-0.0433,-0.0417,-0.0373,-0.0333,-0.0272,-0.0264,-0.0273,-0.0247,-0.0245,-0.0246,-0.0245,-0.0255,0,0,0,-0.0347,-0.036,-0.0394,-0.0426,-0.044,-0.0387,-0.0356,-0.033,-0.0283,-0.0256,-0.0224,-0.0223,-0.0242,-0.02,-0.0194,-0.0194,-0.0204,0,0]}]]